Location: Heilwood
(40.6210°N, 78.9150°W)
Time: 20:09:50
(UTC-04:00)

BREEZE-M DEB (TANK) - Visible Passes

Search period start: 26 June 2017 00:00
Search period end: 06 July 2017 00:00
Orbit: 321 x 15829 km, 49.5° (Epoch: 26 June)

Date Brightness Start Highest point End Pass type
(mag) Time Alt. Az. Time Alt. Az. Time Alt. Az.
26 Jun 5.2 05:27:21 10° WNW 05:52:41 65° NNE 05:57:59 10° E visible
26 Jun 7.5 22:27:32 10° SSW 00:39:23 84° SE 01:00:04 10° ENE visible
27 Jun 7.5 22:28:49 10° SSW 00:40:56 86° SE 01:01:18 10° ENE visible
28 Jun 7.5 22:30:12 10° SSW 00:42:30 88° SE 01:02:33 10° ENE visible
29 Jun 7.4 22:31:42 10° SSW 00:44:04 89° SE 01:03:48 10° ENE visible
30 Jun 7.4 22:33:18 10° SSW 00:45:40 89° NW 01:05:05 10° ENE visible
01 Jul 7.4 22:35:01 10° SW 00:47:16 87° NW 01:06:21 10° ENE visible
02 Jul 7.4 22:36:50 10° SW 00:48:54 86° NNW 01:07:39 10° ENE visible
03 Jul 7.4 22:38:46 10° SW 00:50:32 84° NNW 01:08:57 10° ENE visible
04 Jul 7.4 22:40:50 10° SW 00:52:11 83° NNW 01:10:15 10° ENE visible
